Location: Zagreb
(45.8000°N, 16.0000°E)
Time: 03:04:47
(UTC+02:00)

deb Explorer IX - Visible Passes

Search period start: 08 August 2022 00:00
Search period end: 18 August 2022 00:00
Orbit: 531 x 1067 km, 38.8° (Epoch: 07 August)

Date Brightness Start Highest point End Pass type
(mag) Time Alt. Az. Time Alt. Az. Time Alt. Az.
08 Aug ? 04:54:49 10° SSE 04:56:56 12° SE 04:59:10 10° ESE visible
09 Aug ? 04:25:51 10° SSE 04:27:00 11° SE 04:28:10 10° SE visible
11 Aug ? 05:08:09 10° SSW 05:12:15 26° SSE 05:16:55 10° ESE visible
12 Aug ? 04:39:03 13° SSW 04:42:17 24° SSE 04:46:37 10° ESE visible
13 Aug ? 04:10:34 18° S 04:12:20 22° SSE 04:16:19 10° ESE visible
14 Aug ? 03:42:05 20° SSE 03:42:23 20° SSE 03:46:01 10° ESE visible
15 Aug ? 03:13:35 17° SE 03:13:35 17° SE 03:15:44 10° ESE visible
15 Aug ? 04:54:25 14° SW 04:57:58 36° S 05:02:51 10° ESE visible
16 Aug ? 02:45:06 11° ESE 02:45:06 11° ESE 02:45:26 10° ESE visible
16 Aug ? 04:25:55 23° SW 04:27:59 34° S 04:32:38 10° ESE visible
17 Aug ? 03:57:27 31° S 03:58:01 32° S 04:02:25 10° ESE visible
